{"data":{"norad_id":69176,"intl_designator":"2026-111AE","name":"STARLINK-37414","alt_names":[],"object_type":"PAYLOAD","status":"ACTIVE","operator":null,"country":"US","launch_date":"2026-05-21","launch_site_code":"AFETR","launch_vehicle":null,"mission":null,"orbit_class":"UNKNOWN","rcs_meters":null,"size_class":null,"mass_kg":null,"dimensions":null,"purposes":["comms"],"wikipedia_slug":null,"has_3d_model":false,"image_url":null,"decayed_at":null,"tle_current":{"epoch":"2026-09-20T04:23:30.674688Z","epoch_age_seconds":54416,"freshness":"FRESH","line1":"1 69176U 26111AE  26263.18299392  .00010057  00000+0  30832-3 0  9993","line2":"2 69176  53.1596  66.9423 0001181 243.1212 116.9670 15.34405018 18859","mean_motion":15.34405018,"eccentricity":0.0001181,"inclination_deg":53.1596,"raan_deg":66.9423,"arg_perigee_deg":243.1212,"mean_anomaly_deg":116.967,"bstar":0.00030832,"rev_number":1885,"period_min":93.847451168854,"perigee_km":461.88042422329,"apogee_km":463.49622716522,"semimajor_km":6840.8253256943,"source":"CELESTRAK","updated_at":"2026-09-20T09:00:44.095173Z"}}}